FW6466 Weather Reports


Display with metric or nautical units.
time (UTC)temp
F
wind
direction
speed
MPH
gust
MPH
rain 1hr
in
rain 24hr
in
rain mn
in
humidity
%
barometer
mb
20260510064517 54 315 0.0 1.0 0.00 0.23 0.00 79 1009.7
20260510063516 54 351 0.0 1.0 0.00 0.23 0.00 79 1009.7
20260510062517 54 270 0.0 2.0 0.00 0.23 0.00 80 1009.7
20260510061515 54 250 0.0 4.0 0.00 0.23 0.00 80 1009.7
20260510060516 54 13 1.0 4.0 0.00 0.23 0.00 81 1009.5
20260510055517 54 109 2.0 4.0 0.00 0.23 0.00 81 1009.4
20260510054516 54 156 1.0 5.0 0.00 0.23 0.00 81 1009.3
20260510053516 54 116 1.0 6.0 0.00 0.23 0.00 81 1009.1
20260510052517 54 88 1.0 4.0 0.00 0.23 0.00 81 1008.9
20260510051557 54 73 1.0 4.0 0.00 0.23 0.00 81 1008.9
20260510050536 54 108 2.0 7.0 0.00 0.23 0.00 81 1008.8
20260510045516 54 128 2.0 6.0 0.00 0.23 0.00 82 1008.8
20260510044518 54 95 2.0 6.0 0.00 0.23 0.00 82 1008.8
20260510043516 54 122 3.0 8.0 0.00 0.23 0.00 82 1008.8
20260510042517 54 86 2.0 6.0 0.00 0.23 0.00 81 1008.9
20260510041518 54 96 2.0 6.0 0.00 0.23 0.00 82 1009.0
20260510040516 54 94 2.0 7.0 0.00 0.23 0.00 82 1009.0
20260510035516 54 122 2.0 5.0 0.00 0.23 0.23 82 1008.9
20260510034516 55 117 3.0 7.0 0.00 0.23 0.23 82 1008.9
20260510033517 55 117 2.0 6.0 0.00 0.23 0.23 82 1009.0
20260510032517 55 151 2.0 6.0 0.00 0.23 0.23 82 1008.8
20260510031516 55 127 2.0 7.0 0.00 0.23 0.23 81 1008.8
20260510030557 55 123 2.0 5.0 0.00 0.23 0.23 82 1008.9
20260510025517 55 107 2.0 5.0 0.00 0.23 0.23 81 1009.0
20260510024516 55 93 2.0 5.0 0.00 0.23 0.23 81 1009.1
20260510023517 55 71 1.0 4.0 0.00 0.23 0.23 81 1009.1
20260510022517 55 97 2.0 4.0 0.00 0.23 0.23 81 1009.1
20260510021516 55 125 2.0 4.0 0.00 0.23 0.23 81 1009.0
20260510020517 55 139 2.0 6.0 0.00 0.23 0.23 81 1009.0
20260510015516 55 124 1.0 4.0 0.00 0.23 0.23 81 1008.9
20260510014517 55 111 1.0 6.0 0.00 0.23 0.23 81 1009.0
20260510013517 55 120 2.0 6.0 0.00 0.23 0.23 81 1008.8
20260510012517 55 123 2.0 6.0 0.00 0.23 0.23 81 1008.8
20260510011516 55 115 1.0 4.0 0.00 0.23 0.23 80 1009.0
20260510010517 55 138 1.0 7.0 0.00 0.23 0.23 81 1008.8
20260510005515 55 148 1.0 3.0 0.00 0.23 0.23 80 1008.7
20260510004516 55 176 1.0 3.0 0.00 0.23 0.23 80 1008.6
20260510003517 55 124 1.0 4.0 0.00 0.23 0.23 79 1008.6
20260510002535 55 145 1.0 5.0 0.00 0.23 0.23 79 1008.5
20260510001516 56 138 1.0 5.0 0.00 0.23 0.23 78 1008.3
20260510000517 56 118 1.0 3.0 0.00 0.23 0.23 78 1008.1
20260509235516 57 103 1.0 3.0 0.00 0.23 0.23 77 1008.0
20260509234517 57 106 1.0 3.0 0.00 0.23 0.23 77 1007.9
20260509233515 57 100 1.0 2.0 0.00 0.23 0.23 77 1007.9
20260509232516 57 97 1.0 3.0 0.00 0.23 0.23 77 1007.9
20260509231519 58 151 0.0 2.0 0.00 0.23 0.23 77 1007.7
20260509230516 58 110 1.0 3.0 0.00 0.23 0.23 77 1007.7
20260509225518 58 105 1.0 5.0 0.00 0.23 0.23 77 1007.8
20260509224516 58 100 2.0 5.0 0.00 0.23 0.23 78 1007.8
20260509223516 58 94 1.0 3.0 0.00 0.23 0.23 78 1007.8
20260509222555 58 116 1.0 3.0 0.00 0.23 0.23 77 1007.8
20260509221536 57 122 2.0 5.0 0.00 0.23 0.23 79 1007.9
20260509220637 57 109 1.0 2.0 0.00 0.23 0.23 79 1008.0
20260509215516 56 190 0.0 2.0 0.00 0.23 0.23 79 1008.1
20260509214516 56 89 2.0 4.0 0.00 0.23 0.23 80 1008.2
20260509213557 56 16 1.0 4.0 0.00 0.23 0.23 80 1008.2
20260509212516 55 109 2.0 6.0 0.00 0.23 0.23 80 1008.2
20260509211517 55 93 1.0 5.0 0.00 0.23 0.23 80 1008.3
20260509210516 54 86 2.0 6.0 0.00 0.23 0.23 80 1008.3
20260509205516 54 102 2.0 4.0 0.00 0.23 0.23 81 1008.4
20260509204517 54 97 1.0 5.0 0.00 0.23 0.23 81 1008.5
20260509203538 53 84 1.0 4.0 0.00 0.23 0.23 81 1008.7
20260509202517 53 96 2.0 9.0 0.00 0.23 0.23 82 1008.7
20260509201516 53 90 2.0 6.0 0.00 0.23 0.23 81 1008.8
20260509200517 53 128 2.0 5.0 0.01 0.23 0.23 81 1008.9
20260509195537 53 109 2.0 7.0 0.01 0.23 0.23 81 1009.0
20260509194536 52 95 2.0 6.0 0.01 0.23 0.23 81 1009.2
20260509193516 52 87 1.0 5.0 0.01 0.23 0.23 80 1009.4
20260509192517 52 105 1.0 5.0 0.01 0.23 0.23 80 1009.4
20260509191516 52 134 2.0 7.0 0.01 0.23 0.23 80 1009.4
20260509190517 52 129 2.0 8.0 0.00 0.22 0.22 80 1009.5
20260509185515 52 115 3.0 7.0 0.00 0.22 0.22 80 1009.5
20260509184516 52 93 2.0 7.0 0.01 0.22 0.22 80 1009.5
20260509183537 52 114 2.0 7.0 0.01 0.22 0.22 79 1009.5
20260509182515 52 145 3.0 6.0 0.02 0.22 0.22 79 1009.6
20260509181516 52 92 2.0 7.0 0.02 0.22 0.22 79 1009.7
20260509180517 52 80 2.0 4.0 0.02 0.22 0.22 78 1009.8
20260509175516 52 115 2.0 6.0 0.02 0.22 0.22 78 1009.8
20260509174516 52 72 2.0 4.0 0.02 0.21 0.21 78 1009.8
20260509173517 52 87 2.0 5.0 0.02 0.21 0.21 78 1009.9
20260509172516 52 102 3.0 7.0 0.02 0.20 0.20 79 1009.9
20260509171517 52 88 2.0 5.0 0.02 0.20 0.20 79 1010.0
20260509170517 52 109 3.0 6.0 0.02 0.20 0.20 79 1010.1
20260509165518 51 92 2.0 5.0 0.02 0.20 0.20 80 1010.2
20260509164515 51 104 3.0 6.0 0.02 0.19 0.19 79 1010.3
20260509163536 51 83 3.0 7.0 0.02 0.19 0.19 79 1010.5
20260509162517 51 100 3.0 5.0 0.03 0.19 0.19 80 1010.6
20260509161516 51 73 2.0 5.0 0.02 0.18 0.18 80 1010.8
20260509160517 51 96 2.0 6.0 0.04 0.18 0.18 80 1010.9
20260509155517 50 90 3.0 6.0 0.04 0.17 0.17 80 1011.0
20260509154516 50 99 2.0 7.0 0.05 0.17 0.17 80 1011.1
20260509153517 50 98 3.0 7.0 0.05 0.17 0.17 81 1011.3
20260509152516 50 94 2.0 7.0 0.06 0.16 0.16 80 1011.4
20260509151537 49 93 3.0 7.0 0.06 0.16 0.16 79 1011.4
20260509150517 49 108 2.0 6.0 0.06 0.14 0.14 79 1011.4
20260509145516 49 106 3.0 8.0 0.06 0.13 0.13 80 1011.5
20260509144517 49 92 2.0 4.0 0.06 0.13 0.13 80 1011.5
20260509143648 49 90 2.0 4.0 0.06 0.11 0.11 79 1011.5
20260509142516 49 117 2.0 5.0 0.06 0.10 0.10 78 1011.5
20260509141516 48 105 2.0 4.0 0.06 0.09 0.09 79 1011.4
20260509140824 48 90 1.0 5.0 0.05 0.08 0.08 77 1011.4
20260509140016 48 85 2.0 4.0 0.05 0.08 0.08 77 1011.5
20260509135017 48 82 1.0 5.0 0.05 0.07 0.07 76 1011.4
20260509134016 48 45 1.0 2.0 0.05 0.06 0.06 76 1011.5
20260509133016 47 52 1.0 7.0 0.03 0.05 0.05 77 1011.5
20260509132017 47 86 2.0 8.0 0.03 0.04 0.04 76 1011.5
20260509131017 47 80 2.0 4.0 0.02 0.03 0.03 76 1011.6
20260509130016 47 82 1.0 3.0 0.03 0.03 0.03 76 1011.6
20260509125036 46 84 2.0 4.0 0.02 0.02 0.02 77 1011.6
20260509124017 46 91 2.0 5.0 0.02 0.02 0.02 76 1011.8
20260509123015 46 87 2.0 4.0 0.02 0.02 0.02 76 1011.8
20260509122036 46 72 2.0 3.0 0.01 0.01 0.01 76 1011.8
20260509121017 45 75 3.0 5.0 0.01 0.01 0.01 76 1011.9
20260509120017 45 76 2.0 4.0 0.00 0.00 0.00 74 1011.9
20260509115036 45 76 2.0 3.0 0.00 0.00 0.00 74 1012.0
20260509114017 45 79 1.0 4.0 0.00 0.00 0.00 72 1012.0
20260509113017 44 90 1.0 3.0 0.00 0.00 0.00 72 1012.0
20260509112016 44 83 1.0 3.0 0.00 0.00 0.00 70 1012.0
20260509111017 44 86 1.0 2.0 0.00 0.00 0.00 69 1011.9
20260509110016 44 88 0.0 2.0 0.00 0.00 0.00 69 1011.8
20260509105016 43 70 1.0 3.0 0.00 0.00 0.00 69 1011.7
20260509104037 43 87 1.0 4.0 0.00 0.00 0.00 70 1011.7
20260509103016 43 45 1.0 2.0 0.00 0.00 0.00 69 1011.8
20260509102352 42 0.0 2.0 0.00 0.00 0.00 69 1012.0
20260509101516 42 45 0.0 1.0 0.00 0.00 0.00 68 1012.0
20260509100517 42 0.0 1.0 0.00 0.00 0.00 68 1012.0
20260509095536 41 90 0.0 2.0 0.00 0.00 0.00 69 1011.9
20260509094516 42 90 0.0 1.0 0.00 0.00 0.00 68 1012.0
20260509093517 42 90 1.0 1.0 0.00 0.00 0.00 67 1012.1
20260509092518 42 90 0.0 1.0 0.00 0.00 0.00 66 1012.2
20260509091656 42 0.0 0.0 0.00 0.00 0.00 67 1012.3
20260509091016 42 0.0 1.0 0.00 0.00 0.00 66 1012.3
20260509090016 42 0.0 1.0 0.00 0.00 0.00 66 1012.2
20260509085017 42 90 0.0 1.0 0.00 0.00 0.00 65 1012.2
20260509084016 42 90 0.0 1.0 0.00 0.00 0.00 66 1012.1
20260509083057 42 89 0.0 1.0 0.00 0.00 0.00 65 1012.0
20260509082016 41 0.0 0.0 0.00 0.00 0.00 66 1011.9
20260509081017 41 0.0 0.0 0.00 0.00 0.00 65 1011.8
20260509080015 41 0.0 0.0 0.00 0.00 0.00 64 1011.8
20260509075036 41 0.0 0.0 0.00 0.00 0.00 64 1011.8
20260509074017 41 0.0 0.0 0.00 0.00 0.00 63 1011.8
20260509073018 41 0.0 0.0 0.00 0.00 0.00 64 1011.8
20260509072018 41 0.0 0.0 0.00 0.00 0.00 61 1011.8
20260509071017 41 0.0 1.0 0.00 0.00 0.00 62 1011.8
20260509070015 41 0.0 0.0 0.00 0.00 0.00 62 1011.9